TimePST,TemperatureF,Dew PointF,Humidity,Sea Level PressureIn,VisibilityMPH,Wind Direction,Wind SpeedMPH,Gust SpeedMPH,PrecipitationIn,Events,Conditions,WindDirDegrees,DateUTC
12:58 AM,36.0,35.8,99,29.76,10.0,South,2.3,-,N/A,,Mostly Cloudy,170,2013-02-19 08:58:00
1:05 AM,35.6,35.6,100,29.74,10.0,North,-9999.0,-,N/A,Rain,Light Rain,0,2013-02-19 09:05:00
1:18 AM,37.4,37.4,100,29.74,10.0,Calm,Calm,-,N/A,,Overcast,0,2013-02-19 09:18:00
1:20 AM,37.4,37.4,100,29.74,10.0,Variable,1.2,-,N/A,Rain,Light Rain,0,2013-02-19 09:20:00
1:44 AM,39.2,37.4,93,29.73,10.0,West,2.3,-,N/A,,Overcast,280,2013-02-19 09:44:00
1:58 AM,39.4,36.7,90,29.76,10.0,NNW,1.2,-,0.00,,Overcast,330,2013-02-19 09:58:00
2:03 AM,39.2,37.4,93,29.74,10.0,Calm,Calm,-,N/A,Rain,Light Rain,0,2013-02-19 10:03:00
2:58 AM,39.0,37.8,95,29.76,10.0,Calm,Calm,-,0.01,Rain,Light Rain,0,2013-02-19 10:58:00
3:01 AM,39.2,37.4,93,29.74,10.0,Calm,Calm,-,N/A,,Overcast,0,2013-02-19 11:01:00
3:06 AM,39.2,37.4,93,29.74,10.0,Calm,Calm,-,N/A,Rain,Light Rain,0,2013-02-19 11:06:00
3:16 AM,39.2,37.4,93,29.73,10.0,NNW,2.3,-,N/A,Rain,Light Rain,330,2013-02-19 11:16:00
3:21 AM,39.2,37.4,93,29.73,10.0,Variable,2.3,-,N/A,Rain,Light Rain,0,2013-02-19 11:21:00
3:35 AM,39.2,37.4,93,29.73,10.0,North,2.3,-,N/A,,Overcast,360,2013-02-19 11:35:00
3:58 AM,38.8,37.8,96,29.75,10.0,ENE,2.3,-,0.00,,Overcast,70,2013-02-19 11:58:00
4:58 AM,39.4,37.8,94,29.75,10.0,NE,5.8,-,N/A,,Overcast,40,2013-02-19 12:58:00
5:58 AM,40.5,37.9,91,29.77,10.0,Calm,Calm,-,N/A,,Overcast,0,2013-02-19 13:58:00
6:28 AM,39.2,37.4,93,29.75,10.0,South,2.3,-,N/A,,Overcast,180,2013-02-19 14:28:00
6:38 AM,37.4,37.4,100,29.76,10.0,Calm,Calm,-,N/A,,Overcast,0,2013-02-19 14:38:00
6:58 AM,37.6,37.4,99,29.78,10.0,South,5.8,-,N/A,,Overcast,190,2013-02-19 14:58:00
7:18 AM,37.4,37.4,100,29.77,10.0,Calm,Calm,-,N/A,,Overcast,0,2013-02-19 15:18:00
7:58 AM,38.3,38.1,99,29.79,10.0,SSE,2.3,-,N/A,,Overcast,160,2013-02-19 15:58:00
8:23 AM,39.2,37.4,93,29.78,10.0,South,1.2,-,N/A,,Overcast,170,2013-02-19 16:23:00
8:58 AM,39.4,39.2,99,29.82,10.0,WSW,1.2,-,N/A,,Overcast,240,2013-02-19 16:58:00
9:23 AM,41.0,39.2,93,29.80,10.0,SW,2.3,-,N/A,,Overcast,230,2013-02-19 17:23:00
9:43 AM,41.0,41.0,100,29.80,10.0,SW,2.3,-,N/A,,Overcast,220,2013-02-19 17:43:00
9:58 AM,41.0,40.3,97,29.83,10.0,SW,3.5,-,N/A,,Overcast,220,2013-02-19 17:58:00
10:33 AM,42.8,41.0,93,29.81,10.0,WSW,2.3,-,N/A,,Overcast,240,2013-02-19 18:33:00
10:58 AM,43.9,38.8,82,29.83,10.0,Variable,1.2,-,N/A,,Overcast,0,2013-02-19 18:58:00
11:33 AM,44.6,39.2,81,29.82,10.0,Variable,3.5,-,N/A,,Overcast,0,2013-02-19 19:33:00
11:56 AM,48.2,39.2,71,29.82,10.0,Variable,5.8,-,N/A,,Overcast,0,2013-02-19 19:56:00
12:36 PM,48.2,37.4,66,29.82,10.0,NW,3.5,-,N/A,,Mostly Cloudy,310,2013-02-19 20:36:00
12:52 PM,48.2,37.4,66,29.83,10.0,WNW,3.5,-,N/A,,Mostly Cloudy,300,2013-02-19 20:52:00
12:56 PM,48.2,37.4,66,29.83,10.0,NNW,8.1,-,N/A,,Mostly Cloudy,340,2013-02-19 20:56:00
1:09 PM,46.4,35.6,66,29.83,10.0,NNE,5.8,-,N/A,,Scattered Clouds,30,2013-02-19 21:09:00
1:56 PM,50.0,35.6,58,29.84,10.0,NNE,8.1,-,N/A,,Partly Cloudy,30,2013-02-19 21:56:00
2:58 PM,50.2,35.8,58,29.86,10.0,North,10.4,-,N/A,,Clear,10,2013-02-19 22:58:00
4:58 PM,46.2,34.9,65,29.89,10.0,North,9.2,-,N/A,,Overcast,10,2013-02-20 00:58:00
5:58 PM,42.6,34.0,71,29.90,10.0,NNE,5.8,-,N/A,,Clear,30,2013-02-20 01:58:00
6:55 PM,42.1,33.1,70,29.92,10.0,Calm,Calm,-,N/A,,Clear,0,2013-02-20 02:55:00
7:55 PM,38.1,32.9,81,29.94,10.0,Calm,Calm,-,N/A,,Clear,0,2013-02-20 03:55:00
8:55 PM,31.6,31.1,98,29.96,10.0,Calm,Calm,-,N/A,,Clear,0,2013-02-20 04:55:00
9:56 PM,32.0,32.0,100,29.97,10.0,South,5.8,-,N/A,,Clear,170,2013-02-20 05:56:00
10:58 PM,28.0,27.5,98,30.02,10.0,South,4.6,-,N/A,,Clear,190,2013-02-20 06:58:00
11:58 PM,30.2,30.0,99,30.02,10.0,Calm,Calm,-,N/A,,Clear,0,2013-02-20 07:58:00